Content
SEND FEEDBACK

Daily
Averages
Monthly
Summary
United States of America

GIBBON, MINNESOTA


Home > North America > United States > Minnesota
Elevation: 1056 feet     Latitude: 44 39N     Longitude: 094 31W

WEATHER
 
SELECT A DAY
Number of Records: 453,322;   Date Range: 1/1/95 - 7/29/14
 
SHARE

PRINT THIS DATA

[ ← Previous Day ]
WEATHER ALMANAC - JANUARY 31, 2013
[ Next Day → ]
[ °C ]   °F
Weather ElementAverageHighLow
Temperature-1.9 °F5 °F (12:30 am)-9.4 °F (11:05 pm)
Dewpoint-7.3 °F1.4 °F (12:30 am)-14.8 °F (11:05 pm)
Humidity77.5 %85 % (12:30 am)71 % (6:05 pm)
Barometer30.04 in30.26 in (9:59 pm)29.79 in (12:30 am)
Wind Speed18 mph24.2 mph (1:10 pm)
Wind Gust31.1 mph (2:45 pm)
Weather ElementAverage
Visibility9 mi
Wind DirectionWNW (290.3 °)

Weather ElementTotal
Precipitation---
Heating Degree Days67.2 (Base 65)
Averaged from 69 records on January 31, 2013
WEATHER CONDITIONS BREAKOUT
WIND DIRECTION BREAKOUT
WEATHER BY HOUR - JANUARY 31, 2013
[ °C ]   °F
Local TimeTemperatureDewpointHumidityBarometerVisibilityWind DirectionWind SpeedGust SpeedPrecipitationEventsConditions
12:30 AM5.0 °F1.4 °F85 %29.79 in7.0 miWNW (290°)16.1 mphOvercast
12:45 AM3.2 °F-0.4 °F85 %29.79 in10.0 miWNW (290°)13.8 mph23.0 mphOvercast
1:05 AM3.2 °F-0.4 °F85 %29.80 in10.0 miWest (280°)17.3 mphOvercast
1:25 AM3.2 °F-2.2 °F78 %29.80 in10.0 miWest (280°)17.3 mphOvercast
1:45 AM3.2 °F-2.2 °F78 %29.81 in10.0 miWNW (290°)19.6 mph26.5 mphOvercast
2:05 AM1.4 °F-2.2 °F85 %29.82 in10.0 miWNW (290°)15.0 mph20.7 mphOvercast
2:25 AM1.4 °F-2.2 °F85 %29.82 in10.0 miWNW (300°)18.4 mphOvercast
2:45 AM1.4 °F-4.0 °F78 %29.83 in10.0 miWNW (300°)17.3 mph20.7 mphOvercast
3:05 AM1.4 °F-4.0 °F78 %29.82 in10.0 miWNW (290°)15.0 mph21.9 mphOvercast
3:15 AM1.4 °F-3.1 °F81 %29.82 in10.0 miWNW (300°)19.6 mphOvercast
3:28 AM1.4 °F-3.1 °F81 %29.83 in10.0 miWNW (290°)18.4 mph23.0 mphOvercast
3:48 AM1.4 °F-3.1 °F81 %29.83 in10.0 miWNW (290°)15.0 mph21.9 mphOvercast
4:08 AM0.7 °F-3.8 °F81 %29.84 in10.0 miWest (280°)15.0 mph18.4 mphOvercast
4:28 AM0.5 °F-4.0 °F81 %29.85 in7.0 miWest (280°)16.1 mph21.9 mphOvercast
4:48 AM0.3 °F-4.2 °F81 %29.85 in7.0 miWNW (290°)18.4 mph24.2 mphOvercast
5:08 AM0.3 °F-4.2 °F81 %29.86 in7.0 miWNW (290°)17.3 mph26.5 mphOvercast
5:29 AM-0.4 °F-5.1 °F81 %29.87 in10.0 miWNW (290°)17.3 mph27.6 mphOvercast
5:48 AM-0.6 °F-5.3 °F81 %29.88 in5.0 miWest (280°)19.6 mph26.5 mphOvercast
6:08 AM-0.9 °F-5.4 °F81 %29.89 in5.0 miWNW (290°)20.7 mph25.3 mphSnowLight Snow
6:28 AM-0.9 °F-5.8 °F80 %29.89 in10.0 miWNW (290°)19.6 mph27.6 mphOvercast
6:49 AM-2.0 °F-7.2 °F78 %29.91 in7.0 miWNW (300°)20.7 mphOvercast
7:08 AM-3.1 °F-8.1 °F79 %29.92 in10.0 miWNW (290°)18.4 mph26.5 mphOvercast
7:28 AM-3.1 °F-8.3 °F78 %29.93 in10.0 miWNW (300°)19.6 mph26.5 mphOvercast
7:48 AM-3.1 °F-8.1 °F79 %29.94 in10.0 miWNW (300°)17.3 mph26.5 mphOvercast
8:08 AM-3.5 °F-8.5 °F79 %29.96 in10.0 miWNW (290°)16.1 mph23.0 mphOvercast
8:28 AM-3.6 °F-8.7 °F79 %29.97 in7.0 miWest (280°)20.7 mph25.3 mphOvercast
8:48 AM-4.9 °F-10.3 °F78 %29.97 in7.0 miWNW (290°)19.6 mph25.3 mphOvercast
9:13 AM-4.9 °F-10.5 °F77 %29.99 in10.0 miWNW (290°)17.3 mph28.8 mphOvercast
9:29 AM-4.9 °F-10.5 °F77 %30.00 in10.0 miWNW (290°)20.7 mph25.3 mphOvercast
9:48 AM-3.5 °F-9.0 °F77 %30.02 in7.0 miWest (280°)19.6 mph26.5 mphOvercast
10:08 AM-3.5 °F-9.2 °F76 %30.03 in7.0 miWNW (290°)16.1 mph23.0 mphOvercast
10:28 AM-3.1 °F-8.7 °F77 %30.03 in5.0 miWNW (290°)23.0 mph27.6 mphHaze
11:08 AM-1.1 °F-6.9 °F77 %30.05 in3.0 miWNW (290°)21.9 mph28.8 mphHaze
11:28 AM-0.9 °F-7.4 °F74 %30.05 in5.0 miWNW (300°)18.4 mph28.8 mphHaze
11:47 AM-0.9 °F-7.4 °F74 %30.06 in10.0 miWNW (290°)19.6 mph27.6 mphScattered Clouds
12:09 PM-0.8 °F-7.4 °F73 %30.07 in10.0 miWNW (290°)19.6 mph25.3 mphClear
12:24 PM0.0 °F-6.5 °F74 %30.07 in10.0 miWNW (290°)17.3 mph26.5 mphClear
12:50 PM-0.4 °F-5.8 °F78 %30.07 in7.0 miWNW (290°)18.4 mph25.3 mphMostly Cloudy
1:10 PM-0.4 °F-5.8 °F78 %30.08 in4.0 miWNW (290°)24.2 mph29.9 mphOvercast
1:30 PM-0.4 °F-5.8 °F78 %30.09 in5.0 miWNW (300°)19.6 mph28.8 mphMostly Cloudy
1:45 PM-0.4 °F-5.8 °F78 %30.09 in7.0 miWNW (290°)20.7 mph28.8 mphScattered Clouds
2:10 PM-0.4 °F-5.8 °F78 %30.10 in10.0 miWNW (300°)23.0 mph26.5 mphClear
2:25 PM-0.4 °F-5.8 °F78 %30.10 in10.0 miWest (280°)21.9 mph27.6 mphClear
2:45 PM-0.4 °F-7.6 °F72 %30.11 in10.0 miWNW (290°)23.0 mph31.1 mphClear
3:05 PM-0.4 °F-7.6 °F72 %30.13 in10.0 miWNW (300°)18.4 mph29.9 mphClear
3:30 PM-0.4 °F-7.6 °F72 %30.14 in10.0 miWNW (300°)20.7 mph31.1 mphClear
3:45 PM-0.4 °F-7.6 °F72 %30.15 in10.0 miWNW (300°)23.0 mph28.8 mphClear
4:05 PM-0.4 °F-7.6 °F72 %30.15 in10.0 miWNW (290°)19.6 mph27.6 mphClear
4:25 PM-2.2 °F-7.6 °F78 %30.17 in10.0 miWNW (290°)18.4 mph28.8 mphClear
4:45 PM-4.0 °F-9.4 °F78 %30.16 in10.0 miWNW (300°)20.7 mph29.9 mphClear
5:10 PM-4.0 °F-9.4 °F78 %30.18 in10.0 miWNW (290°)19.6 mph25.3 mphClear
5:25 PM-4.0 °F-9.4 °F78 %30.19 in10.0 miWNW (290°)16.1 mph24.2 mphClear
5:45 PM-4.0 °F-9.4 °F78 %30.19 in10.0 miWNW (300°)23.0 mph26.5 mphClear
6:05 PM-4.0 °F-11.2 °F71 %30.20 in10.0 miWNW (300°)19.6 mph24.2 mphClear
6:16 PM-4.9 °F-10.8 °F76 %30.20 in10.0 miWNW (290°)16.1 mph26.5 mphClear
6:28 PM-4.9 °F-11.2 °F74 %30.20 in10.0 miWNW (290°)18.4 mph26.5 mphClear
6:48 PM-4.9 °F-10.8 °F76 %30.21 in10.0 miWNW (300°)16.1 mph23.0 mphClear
7:08 PM-5.8 °F-11.9 °F75 %30.21 in10.0 miWNW (290°)13.8 mph20.7 mphClear
7:28 PM-5.8 °F-12.3 °F74 %30.22 in10.0 miWNW (290°)17.3 mph24.2 mphClear
8:08 PM-6.0 °F-12.5 °F74 %30.23 in10.0 miWest (280°)16.1 mph19.6 mphClear
8:28 PM-6.0 °F-12.1 °F75 %30.24 in10.0 miWest (280°)16.1 mphClear
8:48 PM-6.0 °F-11.9 °F75 %30.25 in10.0 miWNW (290°)12.7 mph19.6 mphClear
9:08 PM-6.0 °F-12.3 °F74 %30.25 in10.0 miWest (280°)12.7 mph19.6 mphClear
9:28 PM-6.0 °F-12.1 °F75 %30.25 in10.0 miWest (280°)13.8 mphClear
9:59 PM-6.0 °F-12.3 °F74 %30.26 in10.0 miWest (280°)12.7 mph20.7 mphClear
10:28 PM-6.0 °F-12.1 °F75 %30.26 in10.0 miWNW (290°)16.1 mphClear
10:37 PM0.0 °F0.0 °F30.26 inWest (280°)12.7 mph
11:05 PM-9.4 °F-14.8 °F77 %30.26 in10.0 miWNW (290°)12.7 mphClear
11:25 PM-9.4 °F-14.8 °F77 %30.26 in10.0 miWNW (290°)11.5 mph19.6 mphClear
Hourly data recorded from KHCD, located miles away from Gibbon, Minnesota







STORIES FROM OUR PARTNERS